Maxwell AFB, AL

10:26 AM CST on November 18, 2017 (GMT -0600)
Maxwell Air Force Base

Weather History for KMXF - April, 2013

Change the Weather History Date:

Sunday, April 7, 2013

  Actual Average Record
Temperature  
Mean Temperature 62 °F -  
Max Temperature 78 °F 74 °F 84 °F (1999)
Min Temperature 48 °F 53 °F 34 °F (2007)
Degree Days  
Heating Degree Days 2    
Growing Degree Days 12 (Base 50)    
Moisture  
Dew Point 52 °F    
Average Humidity 70    
Maximum Humidity 100    
Minimum Humidity 41    
Precipitation  
Precipitation 0.00 in - - ()
Sea Level Pressure  
Sea Level Pressure 30.11 in    
Wind  
Wind Speed 4 mph (South)    
Max Wind Speed 15 mph    
Max Gust Speed 18 mph    
Visibility 10 miles    
Events Rain    
Averages and records for this station are not official NWS values.
T = Trace of Precipitation, MM = Missing Value Source: NWS Daily Summary

Daily Weather History Graph

Daily Weather History Graph

Search for Another Location

Airport or City:

Trip Planner

Search our weather history database for the weather conditions in past years. The results will help you decide how hot, cold, wet, or windy it might be!

Date:

Astronomy

Apr. 07, 2013 Rise Set
Actual Time 6:25 AM CDT 7:09 PM CDT
Civil Twilight 6:00 AM CDT 7:34 PM CDT
Nautical Twilight 5:31 AM CDT 8:04 PM CDT
Astronomical Twilight 5:01 AM CDT 8:34 PM CDT
Moon 4:34 AM CDT (4/7) 4:48 PM CDT (4/7)
Length of Visible Light 13h 33m
Length of Day
12h 44m
Waning Crescent, 8% of the Moon is Illuminated
Apr 7
Waning Crescent
Apr 10
New
Apr 18
First Quarter
Apr 25
Full
May 2
Last Quarter

Hourly Weather History & Observations

Time (CDT) Temp. Dew Point Humidity Pressure Visibility Wind Dir Wind Speed Gust Speed Precip Events Conditions
12:58 AM 55.9 °F 45.5 °F 68% 30.13 in 10.0 mi ESE 2.3 mph - N/A   Clear
1:58 AM 50.2 °F 47.3 °F 90% 30.11 in 10.0 mi South 2.3 mph - N/A   Clear
2:58 AM 51.1 °F 46.0 °F 83% 30.10 in 10.0 mi SSE 2.3 mph - N/A   Clear
3:58 AM 48.2 °F 46.9 °F 95% 30.11 in 9.0 mi North 2.3 mph - N/A   Clear
4:58 AM 49.1 °F 47.8 °F 95% 30.13 in 10.0 mi North 2.3 mph - N/A   Clear
5:58 AM 48.2 °F 46.6 °F 94% 30.14 in 10.0 mi NE 2.3 mph - N/A   Clear
6:59 AM 48.2 °F 46.4 °F 93% 30.16 in 1.2 mi NW 1.2 mph - N/A   Clear
7:09 AM 48.2 °F 48.2 °F 100% 30.16 in 9.0 mi NNW 2.3 mph - N/A   Clear
7:58 AM 52.9 °F 49.5 °F 88% 30.19 in 10.0 mi NE 1.2 mph - N/A   Clear
8:58 AM 60.1 °F 50.0 °F 69% 30.19 in 10.0 mi East 2.3 mph - N/A   Clear
9:58 AM 67.1 °F 50.9 °F 56% 30.19 in 10.0 mi SSE 8.1 mph - N/A   Clear
10:58 AM 70.5 °F 54.1 °F 56% 30.18 in 10.0 mi SSE 10.4 mph - N/A   Clear
11:58 AM 72.1 °F 54.7 °F 54% 30.16 in 10.0 mi South 12.7 mph 18.4 mph N/A   Mostly Cloudy
12:58 PM 74.8 °F 53.6 °F 47% 30.12 in 10.0 mi SW 9.2 mph 17.3 mph N/A   Mostly Cloudy
1:58 PM 76.3 °F 53.4 °F 45% 30.09 in 10.0 mi South 10.4 mph 17.3 mph N/A   Mostly Cloudy
2:58 PM 76.6 °F 53.6 °F 45% 30.07 in 10.0 mi SSE 15.0 mph - N/A   Mostly Cloudy
3:58 PM 77.2 °F 51.6 °F 41% 30.06 in 10.0 mi South 9.2 mph - N/A   Mostly Cloudy
4:58 PM 77.4 °F 52.7 °F 42% 30.06 in 10.0 mi SSW 6.9 mph - N/A   Partly Cloudy
5:58 PM 75.4 °F 53.1 °F 46% 30.05 in 10.0 mi South 6.9 mph - N/A   Clear
6:58 PM 71.8 °F 54.7 °F 55% 30.05 in 10.0 mi South 3.5 mph - N/A   Clear
7:53 PM 64.4 °F 55.4 °F 73% 30.05 in 10.0 mi SSW 2.3 mph - N/A Rain Light Rain
7:58 PM 64.2 °F 55.6 °F 73% 30.06 in 10.0 mi SSW 2.3 mph - 0.00 in Rain Light Rain
8:02 PM 64.4 °F 55.4 °F 73% 30.05 in 10.0 mi SSW 2.3 mph - N/A   Clear
8:58 PM 61.3 °F 53.8 °F 76% 30.06 in 10.0 mi South 4.6 mph - 0.00 in   Clear
9:58 PM 63.9 °F 54.5 °F 72% 30.06 in 10.0 mi South 5.8 mph - N/A   Clear
10:58 PM 63.1 °F 54.7 °F 74% 30.07 in 10.0 mi South 6.9 mph - N/A   Clear
11:58 PM 59.4 °F 55.0 °F 86% 30.08 in 10.0 mi SSW 2.3 mph - N/A   Clear